Gander,

12:53 PM NDT on May 23, 2017 (GMT -0230)
Gander

Weather History for CYQX - January, 2014

Change the Weather History Date:

Tuesday, January 28, 2014

  Actual Average Record
Temperature  
Mean Temperature 24 °F -  
Max Temperature 39 °F 26 °F 41 °F (2003)
Min Temperature 8 °F 11 °F 1 °F (2008)
Degree Days  
Heating Degree Days 40    
Moisture  
Dew Point 27 °F    
Average Humidity 83    
Maximum Humidity 100    
Minimum Humidity 40    
Precipitation  
Precipitation 0.02 in 0.14 in - ()
Sea Level Pressure  
Sea Level Pressure 29.67 in    
Wind  
Wind Speed 19 mph ()    
Max Wind Speed 30 mph    
Max Gust Speed 39 mph    
Visibility 13.4 miles    
Events Rain    
Averages and records for this station are not official NWS values.
T = Trace of Precipitation, MM = Missing Value Source: Averaged Metar Reports

Daily Weather History Graph

Daily Weather History Graph

Search for Another Location

Airport or City:

Trip Planner

Search our weather history database for the weather conditions in past years. The results will help you decide how hot, cold, wet, or windy it might be!

Date:

Astronomy

Jan. 28, 2014 Rise Set
Actual Time 7:43 AM NST 4:59 PM NST
Civil Twilight 7:09 AM NST 5:33 PM NST
Nautical Twilight 6:31 AM NST 6:11 PM NST
Astronomical Twilight 5:54 AM NST 6:49 PM NST
Moon 5:23 AM NST (1/28) 2:39 PM NST (1/28)
Length of Visible Light 10h 24m
Length of Day
9h 15m
Waning Crescent, 8% of the Moon is Illuminated
Jan 28
Waning Crescent
Jan 30
New
Feb 6
First Quarter
Feb 14
Full
Feb 22
Last Quarter

Hourly Weather History & Observations

Time (NST) Temp. Windchill Dew Point Humidity Pressure Visibility Wind Dir Wind Speed Gust Speed Precip Events Conditions
12:20 AM 33.8 °F 20.3 °F 32.0 °F 93% 29.73 in 6.0 mi SSE 28.8 mph 38.0 mph N/A Rain Light Rain
12:30 AM 33.8 °F 20.1 °F 32.0 °F 93% 29.73 in 8.0 mi SSE 29.9 mph 39.1 mph N/A Rain Light Rain
12:47 AM 33.8 °F 20.5 °F 33.8 °F 100% 29.71 in 8.0 mi SSE 27.6 mph 34.5 mph N/A Rain Light Rain
1:30 AM 35.6 °F 24.0 °F 33.8 °F 93% 29.68 in 15.0 mi SSE 23.0 mph 36.8 mph N/A   Overcast
1:54 AM 35.6 °F 24.2 °F 35.6 °F 100% 29.68 in 15.0 mi South 21.9 mph 32.2 mph N/A Rain Light Rain Showers
2:04 AM 37.4 °F 25.9 °F 35.6 °F 93% 29.68 in 12.0 mi South 25.3 mph 32.2 mph N/A Rain Light Rain
2:30 AM 37 °F - 36 °F 92% 29.65 in 7 mi South 21.9 mph - - Rain Light Rain
2:30 AM 37.4 °F 26.6 °F 35.6 °F 93% 29.65 in 8.0 mi South 21.9 mph 29.9 mph N/A Rain Light Rain
3:19 AM 37.4 °F 26.9 °F 35.6 °F 93% 29.62 in 8.0 mi South 20.7 mph 29.9 mph N/A   Overcast
3:30 AM 37.4 °F 25.9 °F 37.4 °F 100% 29.61 in 8.0 mi South 25.3 mph - N/A Rain Light Rain Showers
4:00 AM 37.4 °F 27.8 °F 37.4 °F 100% 29.60 in 8.0 mi South 17.3 mph 26.5 mph N/A   Overcast
4:09 AM 37.4 °F 27.5 °F 37.4 °F 100% 29.61 in 6.0 mi South 18.4 mph - N/A Rain Light Rain Showers
4:30 AM 37.4 °F 27.5 °F 37.4 °F 100% 29.59 in 8.0 mi South 18.4 mph 25.3 mph N/A Rain Light Rain Showers
5:17 AM 37.4 °F 28.5 °F 37.4 °F 100% 29.57 in 8.0 mi South 15.0 mph - N/A Rain Light Rain Showers
5:30 AM 39.2 °F 30.2 °F 37.4 °F 93% 29.56 in 8.0 mi South 17.3 mph - N/A   Overcast
6:30 AM 39.2 °F 30.2 °F 39.2 °F 100% 29.55 in 10.0 mi South 17.3 mph 23.0 mph N/A   Overcast
6:39 AM 39.2 °F 30.5 °F 37.4 °F 93% 29.55 in 10.0 mi South 16.1 mph 26.5 mph N/A   Overcast
6:50 AM 37.4 °F 27.5 °F 37.4 °F 100% 29.54 in 12.0 mi South 18.4 mph - N/A   Overcast
7:30 AM 39.2 °F 31.2 °F 39.2 °F 100% 29.55 in 15.0 mi South 13.8 mph 19.6 mph N/A   Overcast
8:30 AM 39 °F - 38 °F 96% 29.57 in 15 mi WSW 8.1 mph - -   Partly Cloudy
8:30 AM 39.2 °F 33.6 °F 39.2 °F 100% 29.57 in 15.0 mi WSW 8.1 mph - N/A   Overcast
9:30 AM 39.2 °F 32.5 °F 37.4 °F 93% 29.56 in 15.0 mi SSW 10.4 mph - N/A   Overcast
10:30 AM 37.4 °F 30.8 °F 37.4 °F 100% 29.59 in 15.0 mi West 9.2 mph - N/A   Overcast
10:37 AM 35.6 °F 25.5 °F 33.8 °F 93% 29.60 in 4.0 mi WNW 17.3 mph - N/A   Light Drizzle
11:02 AM 33.8 °F 24.3 °F 32.0 °F 93% 29.61 in 4.0 mi WNW 13.8 mph - N/A   Light Drizzle
11:30 AM 32.0 °F 21.2 °F 32.0 °F 100% 29.62 in 4.0 mi WNW 16.1 mph - N/A   Light Drizzle
11:45 AM 32.0 °F 24.2 °F 30.2 °F 93% 29.62 in 20.0 mi West 9.2 mph - N/A   Overcast
12:30 PM 32.0 °F 23.6 °F 24.8 °F 75% 29.62 in 20.0 mi WSW 10.4 mph - N/A   Mostly Cloudy
1:30 PM 32.0 °F 22.5 °F 21.2 °F 64% 29.61 in 20.0 mi West 12.7 mph 24.2 mph N/A   Mostly Cloudy
2:30 PM 31 °F - 21 °F 55% 29.63 in 19 mi WSW 12.7 mph - -   Partly Cloudy
2:30 PM 32.0 °F 22.1 °F 21.2 °F 64% 29.62 in 20.0 mi WSW 13.8 mph - N/A   Mostly Cloudy
3:30 PM 28.4 °F 14.1 °F 14.0 °F 55% 29.66 in 20.0 mi WSW 24.2 mph 32.2 mph N/A   Mostly Cloudy
4:30 PM 26.6 °F 12.0 °F 10.4 °F 51% 29.70 in 20.0 mi WSW 23.0 mph 35.7 mph N/A   Mostly Cloudy
5:30 PM 23.0 °F 6.6 °F 8.6 °F 54% 29.74 in 20.0 mi WSW 25.3 mph 39.1 mph N/A   Mostly Cloudy
6:30 PM 19.4 °F 1.4 °F 3.2 °F 49% 29.81 in 20.0 mi WSW 26.5 mph 38.0 mph N/A   Mostly Cloudy
7:30 PM 15.8 °F -3.4 °F -0.4 °F 49% 29.87 in 20.0 mi WSW 26.5 mph 35.7 mph N/A   Mostly Cloudy
8:30 PM 13 °F - -0 °F 40% 29.90 in 19 mi WSW 26.5 mph - -   Mostly Cloudy
8:30 PM 14.0 °F -5.1 °F -0.4 °F 53% 29.90 in 20.0 mi WSW 24.2 mph 39.1 mph N/A   Mostly Cloudy
9:30 PM 12.2 °F -6.3 °F -0.4 °F 57% 29.96 in 20.0 mi WSW 20.7 mph 33.4 mph N/A   Mostly Cloudy
10:30 PM 10.4 °F -6.6 °F -0.4 °F 62% 30.01 in 20.0 mi WSW 16.1 mph 25.3 mph N/A   Mostly Cloudy
11:30 PM 8.6 °F -11.0 °F -2.2 °F 62% 30.04 in 20.0 mi WSW 20.7 mph 29.9 mph N/A   Scattered Clouds